TimeCDT,TemperatureF,Dew PointF,Humidity,Sea Level PressureIn,VisibilityMPH,Wind Direction,Wind SpeedMPH,Gust SpeedMPH,PrecipitationIn,Events,Conditions,WindDirDegrees,DateUTC
12:12 AM,62.6,60.8,94,30.08,1.0,Calm,Calm,-,N/A,,Mist,0,2012-11-03 05:12:00
12:14 AM,62.6,60.8,94,30.08,2.0,Calm,Calm,-,N/A,,Partly Cloudy,0,2012-11-03 05:14:00
12:21 AM,62.6,60.8,94,30.08,4.0,Calm,Calm,-,N/A,,Partly Cloudy,0,2012-11-03 05:21:00
12:27 AM,62.6,60.8,94,30.08,1.8,Calm,Calm,-,N/A,,Partly Cloudy,0,2012-11-03 05:27:00
12:31 AM,62.6,60.8,94,30.08,0.8,Calm,Calm,-,N/A,,Mist,0,2012-11-03 05:31:00
12:53 AM,62.1,60.1,93,30.08,0.2,Calm,Calm,-,N/A,Fog,Fog,0,2012-11-03 05:53:00
1:21 AM,60.8,60.8,100,30.07,0.2,Calm,Calm,-,N/A,Fog,Fog,0,2012-11-03 06:21:00
1:53 AM,61.0,59.0,93,30.06,0.2,Calm,Calm,-,N/A,Fog,Fog,0,2012-11-03 06:53:00
2:53 AM,62.1,60.1,93,30.06,0.2,Calm,Calm,-,N/A,Fog,Fog,0,2012-11-03 07:53:00
3:20 AM,62.6,60.8,94,30.06,0.2,Calm,Calm,-,N/A,Fog,Fog,0,2012-11-03 08:20:00
3:53 AM,60.1,59.0,96,30.06,0.2,Calm,Calm,-,N/A,Fog,Fog,0,2012-11-03 08:53:00
4:53 AM,60.1,57.9,93,30.06,0.2,Calm,Calm,-,N/A,Fog,Fog,0,2012-11-03 09:53:00
5:53 AM,60.1,57.9,93,30.08,0.2,Calm,Calm,-,N/A,Fog,Fog,0,2012-11-03 10:53:00
6:53 AM,59.0,57.0,93,30.09,0.2,Calm,Calm,-,N/A,Fog,Fog,0,2012-11-03 11:53:00
7:53 AM,59.0,57.9,96,30.12,0.2,Calm,Calm,-,N/A,Fog,Fog,0,2012-11-03 12:53:00
8:40 AM,64.4,64.4,100,30.13,1.0,Calm,Calm,-,N/A,,Mist,0,2012-11-03 13:40:00
8:43 AM,66.2,64.4,94,30.13,2.0,Calm,Calm,-,N/A,,Partly Cloudy,0,2012-11-03 13:43:00
8:51 AM,66.2,64.4,94,30.14,5.0,Calm,Calm,-,N/A,,Partly Cloudy,0,2012-11-03 13:51:00
8:53 AM,66.9,64.9,93,30.14,6.0,Calm,Calm,-,N/A,,Clear,0,2012-11-03 13:53:00
9:53 AM,75.0,69.1,82,30.14,10.0,SSW,3.5,-,N/A,,Clear,210,2012-11-03 14:53:00
10:53 AM,80.1,66.9,64,30.15,10.0,SSW,5.8,-,N/A,,Clear,210,2012-11-03 15:53:00
11:53 AM,81.0,64.9,58,30.14,10.0,SSW,10.4,-,N/A,,Mostly Cloudy,210,2012-11-03 16:53:00
12:53 PM,81.0,64.0,56,30.12,10.0,West,4.6,-,N/A,,Mostly Cloudy,280,2012-11-03 17:53:00
1:53 PM,82.9,63.0,51,30.09,10.0,West,4.6,-,N/A,,Scattered Clouds,260,2012-11-03 18:53:00
2:53 PM,84.0,63.0,49,30.06,10.0,SW,9.2,-,N/A,,Partly Cloudy,230,2012-11-03 19:53:00
3:53 PM,82.9,63.0,51,30.05,10.0,South,10.4,-,N/A,,Clear,180,2012-11-03 20:53:00
4:53 PM,81.0,63.0,54,30.06,10.0,South,10.4,-,N/A,,Clear,180,2012-11-03 21:53:00
5:53 PM,77.0,64.0,64,30.07,10.0,South,8.1,-,N/A,,Clear,190,2012-11-03 22:53:00
6:53 PM,71.1,63.0,75,30.08,10.0,South,5.8,-,N/A,,Clear,170,2012-11-03 23:53:00
7:53 PM,68.0,63.0,84,30.09,10.0,SE,4.6,-,N/A,,Clear,140,2012-11-04 00:53:00
8:53 PM,66.9,63.0,87,30.09,10.0,South,3.5,-,N/A,,Clear,170,2012-11-04 01:53:00
9:53 PM,69.1,64.0,84,30.10,10.0,South,5.8,-,N/A,,Clear,170,2012-11-04 02:53:00
10:53 PM,66.9,64.0,90,30.09,10.0,South,4.6,-,N/A,,Clear,170,2012-11-04 03:53:00
11:53 PM,66.0,64.0,93,30.09,3.0,Calm,Calm,-,N/A,,Clear,0,2012-11-04 04:53:00